Regional Weather Roundup
Issued by NWS State College, PA

Home | Current Version | Previous Version | Graphics & Text | Print | Product List | Glossary Off
Versions: 1 2 3 4 5 6 7 8 9 10 11 12 13 14 15 16 17 18 19 20 21 22 23 24 25 26 27 28 29 30 31 32 33 34 35 36 37 38 39 40 41 42 43 44 45 46 47 48 49 50

320
ASUS41 KCTP 272303
RWRCTP

REGIONAL WEATHER ROUNDUP
NATIONAL WEATHER SERVICE STATE COLLEGE PA
700 PM EDT TUE JUN 27 2017

Note: "fair" indicates few or no clouds below 12,000 feet with no
significant weather and/or obstructions to visibility.

* = STATION THAT DOES NOT REPORT PRECIPITATION /E.G. RAIN...SNOW...ETC/
    THUNDER OR FOG.

PAZ002>004-007>009-013>016-020>023-029>032-280000-
WESTERN PENNSYLVANIA

CITY           SKY/WX    TMP DP  RH WIND       PRES   REMARKS
ERIE           MOSUNNY   66  49  54 W14G20    30.04F
MEADVILLE      PTSUNNY   65  48  54 W9G17     30.07S
FRANKLIN*      PTSUNNY   63  46  55 NW6       30.08R
NEW CASTLE     FAIR      67  45  45 NW7       30.09R
BEAVER COUNTY  MOSUNNY   66  46  48 NW7       30.08R
BUTLER*        SUNNY     66  46  48 NW6       30.08R
PITTSBURGH INT PTSUNNY   66  46  48 W8        30.07S
PITTSBURGH     PTSUNNY   65  46  50 NW6       30.07S
INDIANA*       MOSUNNY   66  48  52 NW9       30.09S
LATROBE        PTSUNNY   64  48  55 W9        30.08S
WASHINGTON CO* SUNNY     66  43  42 W6        30.10S
$$

PAZ004>006-010>012-017>019-024>028-033>037-041-042-045-046-049>053-280000-
CENTRAL PENNSYLVANIA

CITY           SKY/WX    TMP DP  RH WIND       PRES   REMARKS
BRADFORD       CLOUDY    58  53  84 NW5       30.05R
DUBOIS         PTSUNNY   59  47  64 W9        30.06R
CLEARFIELD     CLOUDY    63  49  60 W9        30.06R
JOHNSTOWN      MOSUNNY   62  46  55 W15       30.08R
ALTOONA        CLOUDY    65  48  54 W8        30.06S
STATE COLLEGE  PTSUNNY   64  50  59 W9G17     30.04S
WILLIAMSPORT   CLOUDY    63  55  75 W7        30.00R
SELINSGROVE    MOSUNNY   70  47  43 W10G20    30.00R
FT INDIANTOWN  MOSUNNY   72  46  38 W9G21     29.99R
CAPITAL CITY   MOSUNNY   73  44  35 NW10      29.99R
HARRISBURG     MOSUNNY   74  47  38 NW14G22   29.98R
YORK           SUNNY     73  46  38 NW16      30.00R
$$

PAZ038>040-043-044-047-048-054-055-060>062-067>071-280000-
EASTERN PENNSYLVANIA

CITY           SKY/WX    TMP DP  RH WIND       PRES   REMARKS
SCRANTON       PTSUNNY   70  50  49 NW7       29.97R
MOUNT POCONO   MOSUNNY   64  48  56 W12G20    29.99R
ALLENTOWN      PTSUNNY   73  47  39 W13G21    29.96R
QUAKERTOWN*    CLOUDY    72  48  43 W5        29.98R
READING        PTSUNNY   73  48  41 W13G21    29.96R
LANCASTER      MOSUNNY   74  49  41 NW15      29.98R
COATESVILLE    CLOUDY    72  46  40 W10       29.99R
POTTSTOWN      MOSUNNY   72  48  42 NW8       29.98R
BLUE BELL      MOSUNNY   72  48  43 W7        29.97R
DOYLESTOWN     CLOUDY    74  50  42 W6        29.95R
WILLOW GROVE   NOT AVBL
NORTH PHILA    MOSUNNY   77  50  38 W8        29.96S
PHILADELPHIA   PTSUNNY   78  48  34 W15       29.96R
$$




USA.gov is the U.S. government's official web portal to all federal, state and local government web resources and services.